This demonstration page uses our WeatherBlox Daily Observations layout. Learn more.

Left ArrowRight Arrow

30.21309, -93.2044

Hourly Observations for January 30, 2022

Temp ( °F °C ) Dew Point ( °F °C ) Humidity (%) Winds ( mph kmh ) Pressure ( in mb ) Visibility ( mi km ) Precip ( " mm )
12:15 am 00:15 Clear 36 2.3 35 1.5 95 95 SSW 3 6 30.27 1025 10 16 0.00 0.00
12:35 am 00:35 Clear 37 2.5 35 1.6 94 94 SW 3 6 30.26 1025 10 16 0.00 0.00
12:55 am 00:55 Clear 38 3.1 36 2.1 93 93 SW 5 7 30.26 1025 10 16 0.00 0.00
1:15 am 01:15 Clear 42 5.7 40 4.2 90 90 SW 6 9 30.25 1024 10 16 0.00 0.00
1:35 am 01:35 Clear 44 6.8 40 4.2 84 84 SW 7 11 30.26 1025 10 16 0.00 0.00
1:55 am 01:55 Clear 45 7 40 4.2 83 83 SW 6 9 30.25 1024 10 16 0.00 0.00
2:15 am 02:15 Clear 45 7 40 4.2 83 83 SW 7 11 30.24 1024 10 16 0.00 0.00
2:35 am 02:35 Clear 45 7.1 40 4.3 83 83 SW 7 11 30.24 1024 10 16 0.00 0.00
2:55 am 02:55 Clear 45 7 40 4.2 83 83 SW 6 9 30.23 1024 10 16 0.00 0.00
3:15 am 03:15 Clear 45 7 40 4.3 83 83 SW 7 11 30.23 1024 10 16 0.00 0.00
3:35 am 03:35 Clear 44 6.9 40 4.2 83 83 SW 7 11 30.22 1023 10 16 0.00 0.00
3:55 am 03:55 Clear 45 7.2 40 4.6 84 84 WSW 8 13 30.22 1023 10 16 0.00 0.00
4:15 am 04:15 Clear 45 7.4 40 4.7 83 83 WSW 8 13 30.22 1023 10 16 0.00 0.00
4:35 am 04:35 Clear 45 7.4 41 4.9 84 84 WSW 7 11 30.22 1023 10 16 0.00 0.00
4:55 am 04:55 Clear 45 7.1 40 4.7 85 85 SW 6 9 30.22 1023 10 16 0.00 0.00
5:15 am 05:15 Clear 45 7.1 41 4.8 85 85 WSW 7 11 30.22 1023 10 16 0.00 0.00
5:35 am 05:35 Clear 45 7.1 41 4.8 85 85 WSW 6 9 30.22 1023 10 16 0.00 0.00
6:00 am 06:00 Mostly Clear 45 7 41 5 87 87 SW 6 9 30.23 1024 10 16 0.00 0.00
6:54 am 06:54 Mostly Clear 39 4 36 2 87 87 Calm 30.24 1024 10 16 0.00 0.00
7:52 am 07:52 Mostly Sunny 39 4 37 3 93 93 Calm 30.25 1024 10 16 0.00 0.00
8:55 am 08:55 Mostly Sunny 54 12 45 7 72 72 WSW 8 13 30.26 1025 10 16 0.00 0.00
9:51 am 09:51 Mostly Sunny 57 14 43 6 59 59 SSE 9 15 30.28 1025 10 16 0.00 0.00
10:55 am 10:55 Mostly Sunny 63 17 37 3 39 39 WSW 14 22 30.27 1025 10 16 0.00 0.00
11:53 am 11:53 Mostly Sunny 64 18 34 1 32 32 WSW 12 19 30.24 1024 10 16 0.00 0.00
12:53 pm 12:53 Mostly Sunny 66 19 32 0 28 28 W 15 24 30.20 1023 10 16 0.00 0.00
1:50 pm 13:50 Mostly Sunny 66 19 36 2 32 32 WSW 15 24 30.17 1022 10 16 0.00 0.00
2:50 pm 14:50 Mostly Sunny 66 19 34 1 30 30 SW 17 28 30.15 1021 10 16 0.00 0.00
3:50 pm 15:50 Mostly Sunny 66 19 34 1 30 30 SW 17 28 30.14 1021 10 16 0.00 0.00
4:55 pm 16:55 Mostly Sunny 64 18 36 2 34 34 SSW 15 24 30.14 1021 10 16 0.00 0.00
5:45 pm 17:45 Mostly Sunny 61 16 41 5 48 48 SSW 9 15 30.14 1021 10 16 0.00 0.00
6:50 pm 18:50 Mostly Clear 55 13 43 6 63 63 SSW 8 13 30.15 1021 10 16 0.00 0.00
7:45 pm 19:45 Mostly Clear 43 6 39 4 87 87 Calm 30.15 1021 10 16 0.00 0.00
8:45 pm 20:45 Mostly Clear 43 6 39 4 87 87 Calm 30.16 1021 10 16 0.00 0.00
9:45 pm 21:45 Mostly Clear 43 6 41 5 93 93 Calm 30.15 1021 10 16 0.00 0.00
10:15 pm 22:15 Clear 46 7.7 43 6.1 90 90 SSE 3 6 30.15 1021 7 11 0.00 0.00
10:35 pm 22:35 Clear 46 7.7 43 6.3 91 91 Calm 30.15 1021 7 11 0.00 0.00
10:55 pm 22:55 Clear 46 7.7 44 6.5 92 92 S 3 6 30.15 1021 7 11 0.00 0.00
11:15 pm 23:15 Clear with Mist and Fog 45 7.4 44 6.4 93 93 S 3 6 30.15 1021 7 11 0.00 0.00
11:35 pm 23:35 Clear 45 7.3 43 6.3 93 93 Calm 30.15 1021 7 11 0.00 0.00
11:55 pm 23:55 Clear 46 7.6 44 6.6 93 93 Calm 30.15 1021 10 16 0.00 0.00

Powered by AerisWeather